Location: Bietenhausen
(48.4099°N, 8.8675°E)
Time: 14:27:48
(UTC+00:00)

Daily predictions for brighter satellites

Satellite Brightness Start Highest point End
(mag) Time Altitude Azimuth Time Altitude Azimuth Time Altitude Azimuth
Spot 2 Rocket 4.0 20:00:59 10° SE 20:05:48 46° ENE 20:10:39 10° N
Cosmos 1441 Rocket 3.1 20:09:58 10° N 20:13:33 66° ENE 20:17:10 10° SSE
Okean-O 3.3 20:09:33 10° S 20:13:51 53° W 20:18:11 10° NNW
Cosmos 2360 Rocket 3.3 20:09:45 10° NNW 20:14:56 34° NE 20:20:04 10° ESE
ATLAS 2AS CENTAUR R/B 3.5 20:09:56 10° NW 20:16:33 45° NE 20:22:56 10° ESE
Cosmos 2266 Rocket 4.4 20:11:59 10° SSE 20:18:02 50° E 20:24:11 10° NNE
Cosmos 1733 Rocket 4.5 20:14:58 10° NNE 20:18:37 25° ENE 20:22:16 10° SE
Cosmos 1300 4.0 20:17:06 10° NNE 20:20:03 24° ENE 20:22:59 10° SE
USA 245 3.2 20:19:03 10° SSE 20:22:25 76° ENE 20:26:44 10° N
Cosmos 1674 3.4 20:19:53 10° SSW 20:23:15 49° WNW 20:26:38 10° N
Cosmos 2333 Rocket 3.2 20:18:02 10° NNW 20:23:22 37° NE 20:28:40 10° ESE
SL-16 R/B 2.3 20:18:33 10° NNW 20:24:15 70° ENE 20:29:51 10° SE
Cosmos 1515 Rocket 4.1 20:20:18 10° SSW 20:24:34 61° WNW 20:28:53 10° N
In-Cosmos 22 4.3 20:19:20 10° S 20:24:53 60° E 20:30:19 10° NNE
Cosmos 1908 3.1 20:22:25 10° N 20:26:01 83° W 20:29:38 10° S
Cosmos 1470 3.2 20:22:33 10° NNW 20:26:12 56° W 20:29:49 10° S
Cosmos 468 Rocket 4.3 20:22:20 10° NNW 20:27:33 68° WSW 20:32:41 10° S
Atlas Centaur 2 4.2 20:23:11 10° SW 20:28:57 21° S 20:34:35 10° SE
Cosmos 2082 Rocket 3.0 20:23:28 10° SW 20:29:06 59° WNW 20:34:45 10° NNE
IRS-1A Rocket 4.4 20:24:31 10° S 20:30:01 73° WSW 20:35:33 10° NNW
Ariane Rocket 3.1 20:25:17 10° SSE 20:30:20 70° ENE 20:35:25 10° N
Cosmos 2228 Rocket 4.1 20:28:16 10° SSE 20:32:18 32° E 20:36:22 10° NNE
SL-14 R/B 4.2 20:29:38 11° SSE 20:32:47 29° E 20:36:06 10° NNE
IRS-1C Rocket 4.5 20:29:06 10° S 20:34:19 64° WSW 20:39:33 10° NNW
RESURS DK-1 2.7 20:31:47 10° NNW 20:35:48 55° ENE 20:39:23 13° SE
Okean O Rocket 4.1 20:33:15 10° SW 20:36:21 19° W 20:39:28 10° NW
ARGOS Delta rocket 4.4 20:33:31 10° S 20:37:53 51° W 20:42:11 10° NNW
Tiangong 0.0 20:36:31 10° SW 20:38:19 14° SSW 20:39:45 11° S
Cosmos 1869 Rocket 3.7 20:36:26 10° N 20:40:54 83° W 20:45:21 10° S
Cosmos 1346 Rocket 3.5 20:39:51 10° N 20:43:30 38° ENE 20:46:26 14° SE
Terra 2.0 20:39:54 10° S 20:44:36 75° WSW 20:49:20 10° NNW
SPOT 3 Rocket 3.6 20:40:43 10° SSE 20:45:47 85° ENE 20:51:00 10° NNW
USA 281 4.2 20:42:32 10° ESE 20:48:29 38° NE 20:54:27 10° NNW
Timation 1 Rocket 4.4 20:44:11 10° S 20:49:59 57° ESE 20:55:49 10° NE
EXPRESS MD2 1.9 20:50:30 10° WSW 20:53:15 78° SSE 20:55:25 10° ENE
Meteor 1-22 Rocket 4.4 20:49:13 10° NNW 20:54:50 80° W 21:00:32 11° S
Cosmos 2315 Rocket 4.1 20:50:06 10° N 20:56:30 76° E 21:02:15 13° SSE
Cosmos 1758 3.3 20:54:13 10° N 20:58:07 72° E 21:01:09 16° SSE
Cosmos 1741 Rocket 4.2 20:55:31 10° S 21:00:37 53° ESE 21:05:47 10° NNE
Landsat 4 4.0 21:00:47 13° S 21:03:44 52° WSW 21:07:07 10° NNW
Cosmos 968 Rocket 3.9 20:59:28 12° S 21:03:47 41° ESE 21:08:39 10° NE
Cosmos 2322 Rocket 2.2 21:02:24 10° NNW 21:08:07 88° WSW 21:12:36 17° SSE
Cosmos 1356 Rocket 3.4 21:06:07 13° S 21:09:43 67° E 21:13:55 10° NNE
SeaSat 1 3.7 21:07:52 10° S 21:12:15 32° WSW 21:16:39 10° NW
Cosmos 1862 Rocket 3.6 21:11:25 16° S 21:14:49 61° E 21:19:12 10° NNE
Meteor 1-21 4.3 21:13:02 12° S 21:18:22 71° E 21:24:10 10° NNE
MOS 1 Rocket 4.3 21:14:17 10° S 21:19:30 49° W 21:24:40 10° NNW
Okean 2 4.2 21:19:14 21° SE 21:21:12 32° E 21:24:48 10° NNE
USA 234 3.5 21:16:04 10° NE 21:22:37 77° NNW 21:29:08 10° WSW
BREEZE-M DEB (TANK) 4.4 21:00:15 10° WSW 21:22:48 88° S 21:27:45 10° ENE
Cosmos 1400 Rocket 3.8 21:22:55 10° SSW 21:26:38 43° WNW 21:30:20 10° N
Cosmos 1455 3.0 21:24:46 10° N 21:27:59 33° ENE 21:29:35 22° ESE
SL-4 R/B 2.8 21:24:52 10° WNW 21:28:41 52° N 21:32:46 10° ENE
COSMOS 2428 4.0 21:23:44 10° NNW 21:28:53 33° NE 21:33:46 11° ESE
Meteor 2-10 Rocket 4.3 21:26:15 10° NNW 21:31:42 52° W 21:36:16 13° SSW
Meteor 2-20 4.5 21:26:31 10° N 21:32:43 84° W 21:37:26 18° S
Landsat 5 3.6 21:30:28 10° N 21:34:26 72° WNW 21:38:06 13° SSW
Cosmos 2219 Rocket 2.4 21:29:49 10° NNW 21:35:30 66° ENE 21:39:27 20° SE
Cosmos 1707 Rocket 3.8 21:31:38 13° SSW 21:35:38 69° WNW 21:40:04 10° N
ATLAS CENTAUR R/B 0.8 21:35:23 10° SW 21:38:51 83° SE 21:42:28 10° NE
Cosmos 1315 Rocket 3.0 21:39:54 26° SSE 21:41:52 54° E 21:45:47 10° NNE
ARIANE 5 R/B 2.9 21:39:26 24° SE 21:41:53 56° ENE 21:46:09 10° N
SJ 16-02 1.3 21:39:29 20° S 21:42:18 66° ESE 21:46:37 10° NNE
Meteor 1-4 Rocket 1.9 21:41:42 34° S 21:42:48 74° E 21:45:49 10° NNE
SL-27 R/B 2.2 21:41:50 20° SW 21:43:32 61° WNW 21:46:17 10° NNE
Okean 3 3.4 21:41:42 19° SSW 21:44:36 81° W 21:48:47 10° N
Cosmos 1953 2.3 21:41:56 10° N 21:45:45 64° ENE 21:47:31 29° SSE
Aureole 3 3.7 21:49:38 19° SSW 21:52:19 67° WNW 21:57:02 10° N
Cosmos 1300 4.4 21:51:45 10° NW 21:54:42 24° W 21:57:03 13° SW
Cosmos 1733 Rocket 4.2 21:52:23 10° NNW 21:56:27 37° W 21:59:30 16° SSW
Nadezhda 1 Rocket 4.3 21:51:26 10° N 21:57:41 58° ENE 22:01:33 23° SSE
Cosmos 2360 Rocket 2.8 21:53:40 10° NW 21:59:05 48° WSW 22:02:32 21° S
H-2A R/B 3.0 21:59:14 26° SE 22:01:24 51° ENE 22:05:33 10° N
GP-B 3.1 21:57:54 10° N 22:02:19 70° E 22:04:27 29° SSE
Cosmos 839 Rocket 4.1 21:55:56 10° NW 22:02:53 73° WSW 22:06:44 24° SSE
ATLAS 2AS CENTAUR R/B 3.0 22:01:02 10° NW 22:07:38 54° WSW 22:11:32 24° S
Cosmos 2333 Rocket 2.9 22:02:19 10° NW 22:07:45 45° WSW 22:11:07 22° S
SL-16 R/B 4.0 22:03:37 10° NW 22:07:46 21° W 22:11:42 11° SSW
Cosmos 1908 Rocket 3.5 22:04:39 10° NNW 22:09:02 81° W 22:11:05 30° S
Cosmos 1782 Rocket 3.8 22:07:18 10° N 22:11:35 57° ENE 22:13:29 30° SE
RESURS DK-1 4.5 22:10:28 10° WNW 22:13:06 17° WSW 22:14:58 13° SW
BREEZE-M DEB (TANK) 3.5 22:10:41 10° W 22:13:34 79° N 22:21:40 10° E
Okean 1-7 3.3 22:13:21 22° SSW 22:16:01 62° WNW 22:20:19 10° N
Atlas Centaur 2 4.4 22:12:09 10° SW 22:16:47 16° SSW 22:16:47 16° SSW
Cosmos 1408 2.9 22:22:39 34° E 22:22:46 34° E 22:25:32 10° NNE
BlueWalker 3 3.0 22:24:28 27° ESE 22:24:28 27° ESE 22:26:53 10° ENE
Cosmos 1242 Rocket 1.7 22:23:20 65° SW 22:23:39 80° WNW 22:26:26 10° N
BREEZE-M DEB (TANK) 3.4 22:19:40 10° WNW 22:23:42 36° N 22:25:46 10° ENE
MINOTAUR 4 R/B 3.7 22:22:37 10° N 22:25:31 68° WNW 22:26:11 47° SW
Cosmos 1570 Rocket 4.0 22:26:26 10° NNW 22:31:48 80° WSW 22:34:28 31° SSE
Cosmos 1300 Rocket 3.5 22:27:55 10° N 22:32:14 78° E 22:33:55 36° SSE
USA 281 3.5 22:28:55 25° S 22:32:46 56° WSW 22:39:14 10° NNW
Cosmos 2237 Rocket 3.2 22:27:26 10° NNW 22:32:47 40° NE 22:37:15 14° ESE
Cosmos 2322 3.7 22:27:29 10° NNW 22:33:12 80° WSW 22:36:10 29° SSE
Cosmos 1238 4.3 22:30:08 10° N 22:33:16 85° W 22:34:07 48° S
H-2A R/B 3.7 22:31:11 10° NE 22:34:20 20° E 22:35:22 18° ESE
ALOS 2 2.7 22:32:43 32° SE 22:34:37 67° ENE 22:39:00 10° N
Cosmos 371 Rocket 4.0 22:38:28 30° SE 22:39:57 38° ESE 22:44:24 10° NE
Cosmos 2227 Rocket 4.0 22:38:36 14° ESE 22:40:18 16° E 22:43:39 10° ENE
CZ-3 Stage 3 4.4 22:14:22 10° W 22:40:30 32° SW 22:45:18 24° S
CZ-2C R/B 4.5 22:36:26 10° N 22:40:39 45° WNW 22:43:36 18° SW
CZ-4C R/B 2.6 22:42:24 30° SE 22:43:20 32° ESE 22:48:06 10° NE
BREEZE-M DEB (TANK) 3.5 22:45:04 40° SE 22:45:04 40° SE 22:48:54 10° ENE
Cosmos 1703 3.7 22:44:41 38° SE 22:45:26 44° E 22:48:58 10° NNE
Cosmos 1980 4.3 22:40:13 10° NNW 22:45:45 51° NE 22:49:45 19° SE
Cosmos 1709 Rocket 4.1 22:45:06 28° S 22:48:41 75° E 22:55:03 10° NNE
Spot 4 4.0 22:49:10 33° S 22:51:14 63° WSW 22:56:01 10° NNW
Cosmos 2322 Rocket 4.3 22:48:12 10° WNW 22:51:18 15° W 22:54:24 10° SW
NOSS 0 Rocket 3.9 22:48:47 10° NNW 22:55:04 87° ENE 22:58:44 27° SSE
Cosmos 158 Rocket 4.0 22:50:36 10° NNW 22:55:55 71° WSW 22:58:13 33° S
Cosmos 2242 Rocket 3.6 22:57:30 36° S 22:59:20 89° W 23:03:57 10° N
Cosmos 2297 Rocket 2.8 22:57:55 30° SSE 23:00:03 42° ESE 23:05:20 10° NE
EXPRESS MD2 3.9 22:58:32 10° WNW 22:59:34 24° WNW 22:59:34 24° WNW
Meteor 2-5 Rocket 4.0 22:57:47 30° SSE 23:00:41 62° E 23:06:28 10° NNE
Cosmos 1455 4.1 22:59:49 10° NW 23:02:10 17° W 23:03:18 15° WSW
Cosmos 2208 Rocket 4.2 22:58:41 10° NNW 23:03:47 57° WSW 23:05:55 33° S
GEOS 3 Rocket 4.3 23:00:08 10° NE 23:04:51 36° ESE 23:06:13 30° SSE
USA 234 4.4 22:59:03 10° ENE 23:05:13 45° N 23:11:21 10° W
Cosmos 1892 3.9 23:06:43 24° ESE 23:07:17 25° E 23:10:14 10° NNE
SL-4 R/B 2.0 23:03:41 10° WNW 23:07:45 81° NNE 23:12:04 10° ESE
Cosmos 773 Rocket 3.9 23:02:51 10° NNW 23:08:01 83° ENE 23:10:31 31° SSE
COSMOS 2428 3.1 23:07:51 10° NW 23:13:21 50° WSW 23:15:45 31° SSW
CENTAUR R/B 3.7 23:12:45 20° SE 23:14:32 23° ESE 23:19:27 10° ENE
Cosmos 2098 Rocket 4.1 23:08:15 10° N 23:14:53 86° E 23:18:28 29° S
COSMOS 2455 2.8 23:12:16 28° SSW 23:15:34 75° ESE 23:21:37 10° NE
NOSS 8 (H) 4.3 23:15:28 55° SSW 23:16:04 74° SE 23:19:09 10° NE
ATLAS CENTAUR R/B 3.9 23:14:39 10° WNW 23:17:01 16° NNW 23:19:26 10° N
Cosmos 1503 Rocket 4.1 23:15:43 34° S 23:17:59 64° ESE 23:23:15 10° NNE
Cosmos 2219 Rocket 3.7 23:14:38 10° NW 23:18:55 22° W 23:21:08 18° SW
Cosmos 1777 Rocket 4.2 23:18:39 33° SSE 23:20:46 56° ESE 23:25:57 10° NNE
SJ 16-02 3.8 23:18:16 10° W 23:21:08 17° NW 23:24:01 10° N
PSLV R/B 3.5 23:27:19 10° N 23:31:34 76° WNW 23:33:06 38° SSW
Cosmos 332 Rocket 4.4 23:31:18 32° SSE 23:33:00 44° ESE 23:37:39 10° NE
Cosmos 304 Rocket 3.7 23:31:07 35° SSW 23:33:09 87° WNW 23:37:57 10° NNE
Cosmos 2263 Rocket 4.0 23:33:49 14° SE 23:36:10 17° E 23:39:41 10° ENE
H-2A R/B 4.4 23:35:13 16° WSW 23:36:36 19° W 23:39:37 10° NW
Cosmos 1174 4.2 23:32:30 10° NW 23:37:38 73° NE 23:39:54 27° SE
Okean 1 Rocket 3.3 23:36:56 10° N 23:41:15 61° ENE 23:43:05 32° SE
Cosmos 2181 Rocket 4.0 23:40:13 10° NNW 23:46:23 69° W 23:49:33 30° S
Cosmos 1825 1.9 23:47:12 55° SSE 23:47:48 72° E 23:51:15 10° NNE
Helios 1A Rocket 4.4 23:46:37 16° ESE 23:48:57 29° ENE 23:52:16 10° N
